SITE: BDASw,YEAR: 2004,,,,,,,,
2004date,time,pzhd (cm),gw temp (C),DWT (cm),WT elev (m),,,,
01/01/04,0:00,97.4,15.9,261.6,1370.648,,Depth to water table:,,
01/01/04,0:30,97.1,15.9,261.9,1370.645,,DWT = SCL - CH - h (all values in cm),,
01/01/04,1:00,97.5,15.9,261.5,1370.649,,where,,
01/01/04,1:30,97.1,15.9,261.9,1370.645,,SCL = sensor cable length = 490.5 cm,,
01/01/04,2:00,97.5,15.9,261.5,1370.649,,CH = casing height of well = 131.5 cm,,
01/01/04,2:30,97.1,15.9,261.9,1370.645,,h = height of water above sensor (from pzhd column),,
01/01/04,3:00,97.1,15.9,261.9,1370.645,,,,
01/01/04,3:30,97.3,15.9,261.7,1370.647,,WT elevation:,,
01/01/04,4:00,97.3,15.9,261.7,1370.647,,Sensor elev = 1369.674 m asl,,
01/01/04,4:30,96.9,15.9,262.1,1370.643,,WT elev = sensor elev + h (from pzhd column),,
01/01/04,5:00,97.1,15.9,261.9,1370.645,,,,
01/01/04,5:30,97.1,15.9,261.9,1370.645,,,,
01/01/04,6:00,97.4,15.9,261.6,1370.648,,Dates with missing data: several due to low WT:,,
01/01/04,6:30,96.9,15.9,262.1,1370.643,,Sep 23--Oct 9.,,
01/01/04,7:00,97.1,15.9,261.9,1370.645,,All heads < 1.0 cm and associated temperature data eliminated from DWT file.,,
01/01/04,7:30,97.3,15.9,261.7,1370.647,,DWT greater than approx. 358.0 cm is below detection.,,
01/01/04,8:00,97.3,15.9,261.7,1370.647,,767 total missing data points.,,
01/01/04,8:30,97.3,15.9,261.7,1370.647,,,,
01/01/04,9:00,96.9,15.9,262.1,1370.643,,,,
01/01/04,9:30,97.1,15.9,261.9,1370.645,,"Dates w/missing T data: 1/17, 3/11, 4/27, 5/8, 5/24,",,
01/01/04,10:00,96.8,15.9,262.2,1370.642,,"9/8, 9/23--10/9, 12/8.",,
01/01/04,10:30,96.1,15.9,262.9,1370.635,,,,
01/01/04,11:00,96.7,15.9,262.3,1370.641,,,,
01/01/04,11:30,96.9,15.9,262.1,1370.643,,,,
01/01/04,12:00,96.9,15.9,262.1,1370.643,,,,
01/01/04,12:30,96.6,15.9,262.4,1370.640,,,,
01/01/04,13:00,97.1,15.9,261.9,1370.645,,,,
01/01/04,13:30,97.6,15.9,261.4,1370.650,,,,
01/01/04,14:00,97.5,15.9,261.5,1370.649,,,,
01/01/04,14:30,97.3,15.9,261.7,1370.647,,,,
01/01/04,15:00,97.2,15.9,261.8,1370.646,,,,
01/01/04,15:30,97.5,15.9,261.5,1370.649,,,,
01/01/04,16:00,97.7,15.9,261.3,1370.651,,,,
01/01/04,16:30,97.5,15.9,261.5,1370.649,,,,
01/01/04,17:00,97.7,15.9,261.3,1370.651,,,,
01/01/04,17:30,97.8,15.9,261.2,1370.652,,,,
01/01/04,18:00,98.0,15.9,261.0,1370.654,,,,
01/01/04,18:30,97.4,15.9,261.6,1370.648,,,,
01/01/04,19:00,97.6,15.9,261.4,1370.650,,,,
01/01/04,19:30,98.3,15.9,260.7,1370.657,,,,
01/01/04,20:00,98.2,15.9,260.8,1370.656,,,,
01/01/04,20:30,97.3,15.9,261.7,1370.647,,,,
01/01/04,21:00,97.9,15.9,261.1,1370.653,,,,
01/01/04,21:30,97.8,15.8,261.2,1370.652,,,,
01/01/04,22:00,97.6,15.8,261.4,1370.650,,,,
01/01/04,22:30,98.0,15.8,261.0,1370.654,,,,
01/01/04,23:00,97.4,15.9,261.6,1370.648,,,,
01/01/04,23:30,98.0,15.8,261.0,1370.654,,,,
01/02/04,0:00,98.4,15.9,260.6,1370.658,,,,
01/02/04,0:30,97.4,15.8,261.6,1370.648,,,,
01/02/04,1:00,97.7,15.8,261.3,1370.651,,,,
01/02/04,1:30,97.6,15.8,261.4,1370.650,,,,
01/02/04,2:00,98.3,15.9,260.7,1370.657,,,,
01/02/04,2:30,97.6,15.9,261.4,1370.650,,,,
01/02/04,3:00,98.7,15.8,260.3,1370.661,,,,
01/02/04,3:30,97.7,15.8,261.3,1370.651,,,,
01/02/04,4:00,98.2,15.8,260.8,1370.656,,,,
01/02/04,4:30,97.5,15.8,261.5,1370.649,,,,
01/02/04,5:00,98.1,15.8,260.9,1370.655,,,,
01/02/04,5:30,99.0,15.9,260.0,1370.664,,,,
01/02/04,6:00,98.2,15.8,260.8,1370.656,,,,
01/02/04,6:30,98.5,15.8,260.5,1370.659,,,,
01/02/04,7:00,97.7,15.9,261.3,1370.651,,,,
01/02/04,7:30,98.2,15.9,260.8,1370.656,,,,
01/02/04,8:00,97.9,15.9,261.1,1370.653,,,,
01/02/04,8:30,98.1,15.8,260.9,1370.655,,,,
01/02/04,9:00,98.0,15.8,261.0,1370.654,,,,
01/02/04,9:30,97.7,15.9,261.3,1370.651,,,,
01/02/04,10:00,98.4,15.8,260.6,1370.658,,,,
01/02/04,10:30,98.4,15.9,260.6,1370.658,,,,
01/02/04,11:00,98.4,15.8,260.6,1370.658,,,,
01/02/04,11:30,97.9,15.9,261.1,1370.653,,,,
01/02/04,12:00,98.1,15.9,260.9,1370.655,,,,
01/02/04,12:30,98.6,15.9,260.4,1370.660,,,,
01/02/04,13:00,97.8,15.8,261.2,1370.652,,,,
01/02/04,13:30,97.5,15.8,261.5,1370.649,,,,
01/02/04,14:00,99.0,15.8,260.0,1370.664,,,,
01/02/04,14:30,97.9,15.8,261.1,1370.653,,,,
01/02/04,15:00,98.1,15.8,260.9,1370.655,,,,
01/02/04,15:30,97.9,15.8,261.1,1370.653,,,,
01/02/04,16:00,98.6,15.8,260.4,1370.660,,,,
01/02/04,16:30,98.8,15.8,260.2,1370.662,,,,
01/02/04,17:00,98.3,15.8,260.7,1370.657,,,,
01/02/04,17:30,98.6,15.8,260.4,1370.660,,,,
01/02/04,18:00,98.1,15.8,260.9,1370.655,,,,
01/02/04,18:30,99.2,15.8,259.8,1370.666,,,,
01/02/04,19:00,98.2,15.8,260.8,1370.656,,,,
01/02/04,19:30,98.0,15.8,261.0,1370.654,,,,
01/02/04,20:00,98.5,15.8,260.5,1370.659,,,,
01/02/04,20:30,98.2,15.8,260.8,1370.656,,,,
01/02/04,21:00,98.6,15.8,260.4,1370.660,,,,
01/02/04,21:30,98.3,15.8,260.7,1370.657,,,,
01/02/04,22:00,98.3,15.8,260.7,1370.657,,,,
01/02/04,22:30,98.3,15.8,260.7,1370.657,,,,
01/02/04,23:00,98.1,15.8,260.9,1370.655,,,,
01/02/04,23:30,98.3,15.8,260.7,1370.657,,,,
01/03/04,0:00,98.4,15.8,260.6,1370.658,,,,
01/03/04,0:30,98.5,15.8,260.5,1370.659,,,,
01/03/04,1:00,98.3,15.8,260.7,1370.657,,,,
01/03/04,1:30,98.7,15.8,260.3,1370.661,,,,
01/03/04,2:00,99.1,15.8,259.9,1370.665,,,,
01/03/04,2:30,98.4,15.8,260.6,1370.658,,,,
01/03/04,3:00,98.3,15.8,260.7,1370.657,,,,
01/03/04,3:30,98.5,15.8,260.5,1370.659,,,,
01/03/04,4:00,99.7,15.8,259.3,1370.671,,,,
01/03/04,4:30,99.1,15.8,259.9,1370.665,,,,
01/03/04,5:00,98.5,15.8,260.5,1370.659,,,,
01/03/04,5:30,99.0,15.8,260.0,1370.664,,,,
01/03/04,6:00,99.0,15.8,260.0,1370.664,,,,
01/03/04,6:30,99.0,15.8,260.0,1370.664,,,,
01/03/04,7:00,98.6,15.8,260.4,1370.660,,,,
01/03/04,7:30,98.5,15.8,260.5,1370.659,,,,
01/03/04,8:00,98.7,15.8,260.3,1370.661,,,,
01/03/04,8:30,98.9,15.8,260.1,1370.663,,,,
01/03/04,9:00,98.7,15.8,260.3,1370.661,,,,
01/03/04,9:30,99.0,15.8,260.0,1370.664,,,,
01/03/04,10:00,99.5,15.8,259.5,1370.669,,,,
01/03/04,10:30,98.4,15.8,260.6,1370.658,,,,
01/03/04,11:00,99.6,15.8,259.4,1370.670,,,,
01/03/04,11:30,98.4,15.8,260.6,1370.658,,,,
01/03/04,12:00,98.4,15.8,260.6,1370.658,,,,
01/03/04,12:30,98.6,15.8,260.4,1370.660,,,,
01/03/04,13:00,99.3,15.9,259.7,1370.667,,,,
01/03/04,13:30,99.0,15.8,260.0,1370.664,,,,
01/03/04,14:00,98.9,15.8,260.1,1370.663,,,,
01/03/04,14:30,98.6,15.8,260.4,1370.660,,,,
01/03/04,15:00,98.9,15.8,260.1,1370.663,,,,
01/03/04,15:30,98.5,15.8,260.5,1370.659,,,,
01/03/04,16:00,99.3,15.8,259.7,1370.667,,,,
01/03/04,16:30,99.1,15.8,259.9,1370.665,,,,
01/03/04,17:00,98.7,15.8,260.3,1370.661,,,,
01/03/04,17:30,98.6,15.8,260.4,1370.660,,,,
01/03/04,18:00,98.4,15.8,260.6,1370.658,,,,
01/03/04,18:30,98.1,15.8,260.9,1370.655,,,,
01/03/04,19:00,98.8,15.8,260.2,1370.662,,,,
01/03/04,19:30,98.6,15.8,260.4,1370.660,,,,
01/03/04,20:00,98.5,15.8,260.5,1370.659,,,,
01/03/04,20:30,99.0,15.8,260.0,1370.664,,,,
01/03/04,21:00,99.1,15.8,259.9,1370.665,,,,
01/03/04,21:30,98.9,15.8,260.1,1370.663,,,,
01/03/04,22:00,98.5,15.8,260.5,1370.659,,,,
01/03/04,22:30,99.3,15.8,259.7,1370.667,,,,
01/03/04,23:00,98.1,15.8,260.9,1370.655,,,,
01/03/04,23:30,98.7,15.8,260.3,1370.661,,,,
01/04/04,0:00,98.7,15.8,260.3,1370.661,,,,
01/04/04,0:30,99.0,15.8,260.0,1370.664,,,,
01/04/04,1:00,98.8,15.8,260.2,1370.662,,,,
01/04/04,1:30,99.3,15.8,259.7,1370.667,,,,
01/04/04,2:00,98.7,15.8,260.3,1370.661,,,,
01/04/04,2:30,99.3,15.8,259.7,1370.667,,,,
01/04/04,3:00,98.6,15.8,260.4,1370.660,,,,
01/04/04,3:30,98.7,15.8,260.3,1370.661,,,,
01/04/04,4:00,98.2,15.8,260.8,1370.656,,,,
01/04/04,4:30,99.0,15.8,260.0,1370.664,,,,
01/04/04,5:00,98.8,15.8,260.2,1370.662,,,,
01/04/04,5:30,98.7,15.8,260.3,1370.661,,,,
01/04/04,6:00,98.9,15.8,260.1,1370.663,,,,
01/04/04,6:30,99.7,15.8,259.3,1370.671,,,,
01/04/04,7:00,99.2,15.8,259.8,1370.666,,,,
01/04/04,7:30,98.8,15.8,260.2,1370.662,,,,
01/04/04,8:00,98.4,15.8,260.6,1370.658,,,,
01/04/04,8:30,99.1,15.8,259.9,1370.665,,,,
01/04/04,9:00,98.6,15.8,260.4,1370.660,,,,
01/04/04,9:30,98.4,15.8,260.6,1370.658,,,,
01/04/04,10:00,98.9,15.8,260.1,1370.663,,,,
01/04/04,10:30,98.7,15.8,260.3,1370.661,,,,
01/04/04,11:00,98.7,15.8,260.3,1370.661,,,,
01/04/04,11:30,98.7,15.8,260.3,1370.661,,,,
01/04/04,12:00,98.7,15.8,260.3,1370.661,,,,
01/04/04,12:30,99.3,15.8,259.7,1370.667,,,,
01/04/04,13:00,99.2,15.8,259.8,1370.666,,,,
01/04/04,13:30,98.8,15.8,260.2,1370.662,,,,
01/04/04,14:00,99.1,15.8,259.9,1370.665,,,,
01/04/04,14:30,98.9,15.8,260.1,1370.663,,,,
01/04/04,15:00,99.2,15.8,259.8,1370.666,,,,
01/04/04,15:30,99.1,15.8,259.9,1370.665,,,,
01/04/04,16:00,99.2,15.8,259.8,1370.666,,,,
01/04/04,16:30,99.3,15.8,259.7,1370.667,,,,
01/04/04,17:00,99.5,15.8,259.5,1370.669,,,,
01/04/04,17:30,99.9,15.8,259.1,1370.673,,,,
01/04/04,18:00,99.9,15.8,259.1,1370.673,,,,
01/04/04,18:30,99.3,15.8,259.7,1370.667,,,,
01/04/04,19:00,99.0,15.8,260.0,1370.664,,,,
01/04/04,19:30,99.2,15.8,259.8,1370.666,,,,
01/04/04,20:00,99.3,15.8,259.7,1370.667,,,,
01/04/04,20:30,99.6,15.8,259.4,1370.670,,,,
01/04/04,21:00,99.4,15.8,259.6,1370.668,,,,
01/04/04,21:30,99.5,15.8,259.5,1370.669,,,,
01/04/04,22:00,100.1,15.8,258.9,1370.675,,,,
01/04/04,22:30,99.4,15.8,259.6,1370.668,,,,
01/04/04,23:00,100.1,15.8,258.9,1370.675,,,,
01/04/04,23:30,98.8,15.8,260.2,1370.662,,,,
01/05/04,0:00,100.0,15.8,259.0,1370.674,,,,
01/05/04,0:30,99.8,15.8,259.2,1370.672,,,,
01/05/04,1:00,99.5,15.8,259.5,1370.669,,,,
01/05/04,1:30,100.0,15.8,259.0,1370.674,,,,
01/05/04,2:00,99.5,15.8,259.5,1370.669,,,,
01/05/04,2:30,99.3,15.8,259.7,1370.667,,,,
01/05/04,3:00,99.8,15.8,259.2,1370.672,,,,
01/05/04,3:30,99.7,15.8,259.3,1370.671,,,,
01/05/04,4:00,99.6,15.8,259.4,1370.670,,,,
01/05/04,4:30,99.7,15.8,259.3,1370.671,,,,
01/05/04,5:00,99.9,15.8,259.1,1370.673,,,,
01/05/04,5:30,99.9,15.8,259.1,1370.673,,,,
01/05/04,6:00,100.0,15.8,259.0,1370.674,,,,
01/05/04,6:30,99.7,15.7,259.3,1370.671,,,,
01/05/04,7:00,99.9,15.8,259.1,1370.673,,,,
01/05/04,7:30,100.3,15.7,258.7,1370.677,,,,
01/05/04,8:00,100.2,15.7,258.8,1370.676,,,,
01/05/04,8:30,100.3,15.7,258.7,1370.677,,,,
01/05/04,9:00,99.7,15.7,259.3,1370.671,,,,
01/05/04,9:30,99.7,15.8,259.3,1370.671,,,,
01/05/04,10:00,99.7,15.7,259.3,1370.671,,,,
01/05/04,10:30,99.2,15.7,259.8,1370.666,,,,
01/05/04,11:00,99.3,15.7,259.7,1370.667,,,,
01/05/04,11:30,99.7,15.7,259.3,1370.671,,,,
01/05/04,12:00,98.9,15.7,260.1,1370.663,,,,
01/05/04,12:30,99.4,15.8,259.6,1370.668,,,,
01/05/04,13:00,99.0,15.8,260.0,1370.664,,,,
01/05/04,13:30,99.7,15.8,259.3,1370.671,,,,
01/05/04,14:00,99.5,15.7,259.5,1370.669,,,,
01/05/04,14:30,100.3,15.7,258.7,1370.677,,,,
01/05/04,15:00,99.4,15.7,259.6,1370.668,,,,
01/05/04,15:30,99.6,15.7,259.4,1370.670,,,,
01/05/04,16:00,99.4,15.8,259.6,1370.668,,,,
01/05/04,16:30,99.6,15.7,259.4,1370.670,,,,
01/05/04,17:00,99.8,15.8,259.2,1370.672,,,,
01/05/04,17:30,99.3,15.8,259.7,1370.667,,,,
01/05/04,18:00,99.5,15.8,259.5,1370.669,,,,
01/05/04,18:30,99.7,15.7,259.3,1370.671,,,,
01/05/04,19:00,99.9,15.7,259.1,1370.673,,,,
01/05/04,19:30,99.5,15.8,259.5,1370.669,,,,
01/05/04,20:00,99.9,15.8,259.1,1370.673,,,,
01/05/04,20:30,99.6,15.7,259.4,1370.670,,,,
01/05/04,21:00,99.5,15.7,259.5,1370.669,,,,
01/05/04,21:30,99.6,15.7,259.4,1370.670,,,,
01/05/04,22:00,100.2,15.7,258.8,1370.676,,,,
01/05/04,22:30,100.3,15.7,258.7,1370.677,,,,
01/05/04,23:00,99.8,15.7,259.2,1370.672,,,,
01/05/04,23:30,99.3,15.7,259.7,1370.667,,,,
01/06/04,0:00,100.4,15.7,258.6,1370.678,,,,
01/06/04,0:30,99.5,15.7,259.5,1370.669,,,,
01/06/04,1:00,99.7,15.7,259.3,1370.671,,,,
01/06/04,1:30,99.5,15.7,259.5,1370.669,,,,
01/06/04,2:00,99.7,15.7,259.3,1370.671,,,,
01/06/04,2:30,100.2,15.7,258.8,1370.676,,,,
01/06/04,3:00,100.3,15.7,258.7,1370.677,,,,
01/06/04,3:30,100.5,15.7,258.5,1370.679,,,,
01/06/04,4:00,100.1,15.7,258.9,1370.675,,,,
01/06/04,4:30,100.5,15.8,258.5,1370.679,,,,
01/06/04,5:00,100.1,15.7,258.9,1370.675,,,,
01/06/04,5:30,100.2,15.7,258.8,1370.676,,,,
01/06/04,6:00,100.8,15.7,258.2,1370.682,,,,
01/06/04,6:30,100.8,15.7,258.2,1370.682,,,,
01/06/04,7:00,100.4,15.7,258.6,1370.678,,,,
01/06/04,7:30,100.9,15.7,258.1,1370.683,,,,
01/06/04,8:00,100.3,15.7,258.7,1370.677,,,,
01/06/04,8:30,100.3,15.7,258.7,1370.677,,,,
01/06/04,9:00,100.4,15.7,258.6,1370.678,,,,
01/06/04,9:30,100.2,15.7,258.8,1370.676,,,,
01/06/04,10:00,99.9,15.7,259.1,1370.673,,,,
01/06/04,10:30,100.8,15.7,258.2,1370.682,,,,
01/06/04,11:00,100.4,15.7,258.6,1370.678,,,,
01/06/04,11:30,100.3,15.7,258.7,1370.677,,,,
01/06/04,12:00,100.4,15.7,258.6,1370.678,,,,
01/06/04,12:30,100.2,15.7,258.8,1370.676,,,,
01/06/04,13:00,100.8,15.7,258.2,1370.682,,,,
01/06/04,13:30,101.0,15.7,258.0,1370.684,,,,
01/06/04,14:00,100.5,15.7,258.5,1370.679,,,,
01/06/04,14:30,101.2,15.7,257.8,1370.686,,,,
01/06/04,15:00,100.6,15.7,258.4,1370.680,,,,
01/06/04,15:30,100.5,15.7,258.5,1370.679,,,,
01/06/04,16:00,101.4,15.7,257.6,1370.688,,,,
01/06/04,16:30,100.7,15.7,258.3,1370.681,,,,
01/06/04,17:00,100.7,15.7,258.3,1370.681,,,,
01/06/04,17:30,100.6,15.7,258.4,1370.680,,,,
01/06/04,18:00,100.8,15.7,258.2,1370.682,,,,
01/06/04,18:30,101.1,15.7,257.9,1370.685,,,,
01/06/04,19:00,100.8,15.7,258.2,1370.682,,,,
01/06/04,19:30,100.6,15.7,258.4,1370.680,,,,
01/06/04,20:00,101.0,15.7,258.0,1370.684,,,,
01/06/04,20:30,101.1,15.7,257.9,1370.685,,,,
01/06/04,21:00,100.9,15.7,258.1,1370.683,,,,
01/06/04,21:30,100.8,15.7,258.2,1370.682,,,,
01/06/04,22:00,100.6,15.7,258.4,1370.680,,,,
01/06/04,22:30,100.9,15.7,258.1,1370.683,,,,
01/06/04,23:00,101.4,15.7,257.6,1370.688,,,,
01/06/04,23:30,101.1,15.7,257.9,1370.685,,,,
01/07/04,0:00,100.4,15.7,258.6,1370.678,,,,
01/07/04,0:30,100.8,15.7,258.2,1370.682,,,,
01/07/04,1:00,100.9,15.7,258.1,1370.683,,,,
01/07/04,1:30,101.3,15.7,257.7,1370.687,,,,
01/07/04,2:00,101.5,15.7,257.5,1370.689,,,,
01/07/04,2:30,101.2,15.7,257.8,1370.686,,,,
01/07/04,3:00,101.0,15.7,258.0,1370.684,,,,
01/07/04,3:30,101.4,15.7,257.6,1370.688,,,,
01/07/04,4:00,101.4,15.7,257.6,1370.688,,,,
01/07/04,4:30,101.4,15.7,257.6,1370.688,,,,
01/07/04,5:00,101.2,15.7,257.8,1370.686,,,,
01/07/04,5:30,101.0,15.7,258.0,1370.684,,,,
01/07/04,6:00,101.0,15.7,258.0,1370.684,,,,
01/07/04,6:30,101.8,15.7,257.2,1370.692,,,,
01/07/04,7:00,101.9,15.7,257.1,1370.693,,,,
01/07/04,7:30,101.6,15.7,257.4,1370.690,,,,
01/07/04,8:00,101.6,15.7,257.4,1370.690,,,,
01/07/04,8:30,101.2,15.7,257.8,1370.686,,,,
01/07/04,9:00,101.5,15.7,257.5,1370.689,,,,
01/07/04,9:30,101.3,15.7,257.7,1370.687,,,,
01/07/04,10:00,101.3,15.7,257.7,1370.687,,,,
01/07/04,10:30,102.2,15.7,256.8,1370.696,,,,
01/07/04,11:00,101.5,15.7,257.5,1370.689,,,,
01/07/04,11:30,101.3,15.7,257.7,1370.687,,,,
01/07/04,12:00,101.5,15.7,257.5,1370.689,,,,
01/07/04,12:30,101.5,15.7,257.5,1370.689,,,,
01/07/04,13:00,101.4,15.7,257.6,1370.688,,,,
01/07/04,13:30,101.6,15.7,257.4,1370.690,,,,
01/07/04,14:00,101.5,15.7,257.5,1370.689,,,,
01/07/04,14:30,101.6,15.7,257.4,1370.690,,,,
01/07/04,15:00,101.8,15.7,257.2,1370.692,,,,
01/07/04,15:30,101.6,15.7,257.4,1370.690,,,,
01/07/04,16:00,102.0,15.7,257.0,1370.694,,,,
01/07/04,16:30,101.9,15.7,257.1,1370.693,,,,
01/07/04,17:00,101.6,15.7,257.4,1370.690,,,,
01/07/04,17:30,102.1,15.7,256.9,1370.695,,,,
01/07/04,18:00,101.7,15.7,257.3,1370.691,,,,
01/07/04,18:30,102.0,15.7,257.0,1370.694,,,,
01/07/04,19:00,101.7,15.7,257.3,1370.691,,,,
01/07/04,19:30,101.2,15.7,257.8,1370.686,,,,
01/07/04,20:00,102.3,15.7,256.7,1370.697,,,,
01/07/04,20:30,101.8,15.7,257.2,1370.692,,,,
01/07/04,21:00,101.5,15.7,257.5,1370.689,,,,
01/07/04,21:30,101.7,15.7,257.3,1370.691,,,,
01/07/04,22:00,102.0,15.7,257.0,1370.694,,,,
01/07/04,22:30,102.4,15.7,256.6,1370.698,,,,
01/07/04,23:00,102.0,15.7,257.0,1370.694,,,,
01/07/04,23:30,102.2,15.7,256.8,1370.696,,,,
01/08/04,0:00,102.8,15.7,256.2,1370.702,,,,
01/08/04,0:30,102.1,15.7,256.9,1370.695,,,,
01/08/04,1:00,102.1,15.7,256.9,1370.695,,,,
01/08/04,1:30,101.9,15.7,257.1,1370.693,,,,
01/08/04,2:00,102.6,15.7,256.4,1370.700,,,,
01/08/04,2:30,103.0,15.7,256.0,1370.704,,,,
01/08/04,3:00,102.2,15.7,256.8,1370.696,,,,
01/08/04,3:30,102.3,15.7,256.7,1370.697,,,,
01/08/04,4:00,103.1,15.7,255.9,1370.705,,,,
01/08/04,4:30,102.3,15.7,256.7,1370.697,,,,
01/08/04,5:00,102.3,15.7,256.7,1370.697,,,,
01/08/04,5:30,103.1,15.6,255.9,1370.705,,,,
01/08/04,6:00,102.0,15.6,257.0,1370.694,,,,
01/08/04,6:30,102.1,15.7,256.9,1370.695,,,,
01/08/04,7:00,102.6,15.7,256.4,1370.700,,,,
01/08/04,7:30,102.2,15.7,256.8,1370.696,,,,
01/08/04,8:00,102.3,15.7,256.7,1370.697,,,,
01/08/04,8:30,102.2,15.7,256.8,1370.696,,,,
01/08/04,9:00,102.0,15.7,257.0,1370.694,,,,
01/08/04,9:30,102.1,15.7,256.9,1370.695,,,,
01/08/04,10:00,101.7,15.7,257.3,1370.691,,,,
01/08/04,10:30,102.1,15.6,256.9,1370.695,,,,
01/08/04,11:00,101.8,15.7,257.2,1370.692,,,,
01/08/04,11:30,103.4,15.7,255.6,1370.708,,,,
01/08/04,12:00,102.3,15.7,256.7,1370.697,,,,
01/08/04,12:30,102.2,15.7,256.8,1370.696,,,,
01/08/04,13:00,102.1,15.7,256.9,1370.695,,,,
01/08/04,13:30,103.0,15.7,256.0,1370.704,,,,
01/08/04,14:00,102.6,15.7,256.4,1370.700,,,,
01/08/04,14:30,102.5,15.7,256.5,1370.699,,,,
01/08/04,15:00,102.5,15.7,256.5,1370.699,,,,
01/08/04,15:30,102.5,15.7,256.5,1370.699,,,,
01/08/04,16:00,102.9,15.7,256.1,1370.703,,,,
01/08/04,16:30,102.7,15.7,256.3,1370.701,,,,
01/08/04,17:00,102.8,15.7,256.2,1370.702,,,,
01/08/04,17:30,103.0,15.7,256.0,1370.704,,,,
01/08/04,18:00,102.9,15.6,256.1,1370.703,,,,
01/08/04,18:30,103.1,15.6,255.9,1370.705,,,,
01/08/04,19:00,103.2,15.7,255.8,1370.706,,,,
01/08/04,19:30,102.8,15.6,256.2,1370.702,,,,
01/08/04,20:00,103.2,15.6,255.8,1370.706,,,,
01/08/04,20:30,102.4,15.7,256.6,1370.698,,,,
01/08/04,21:00,103.0,15.6,256.0,1370.704,,,,
01/08/04,21:30,103.4,15.7,255.6,1370.708,,,,
01/08/04,22:00,103.1,15.7,255.9,1370.705,,,,
01/08/04,22:30,103.1,15.7,255.9,1370.705,,,,
01/08/04,23:00,102.7,15.6,256.3,1370.701,,,,
01/08/04,23:30,102.9,15.6,256.1,1370.703,,,,
01/09/04,0:00,102.9,15.6,256.1,1370.703,,,,
01/09/04,0:30,103.5,15.6,255.5,1370.709,,,,
01/09/04,1:00,102.8,15.6,256.2,1370.702,,,,
01/09/04,1:30,103.3,15.6,255.7,1370.707,,,,
01/09/04,2:00,102.5,15.6,256.5,1370.699,,,,
01/09/04,2:30,102.5,15.6,256.5,1370.699,,,,
01/09/04,3:00,102.6,15.6,256.4,1370.700,,,,
01/09/04,3:30,103.0,15.6,256.0,1370.704,,,,
01/09/04,4:00,103.6,15.6,255.4,1370.710,,,,
01/09/04,4:30,103.0,15.6,256.0,1370.704,,,,
01/09/04,5:00,103.3,15.6,255.7,1370.707,,,,
01/09/04,5:30,103.1,15.6,255.9,1370.705,,,,
01/09/04,6:00,102.8,15.6,256.2,1370.702,,,,
01/09/04,6:30,102.9,15.6,256.1,1370.703,,,,
01/09/04,7:00,102.9,15.6,256.1,1370.703,,,,
01/09/04,7:30,103.5,15.6,255.5,1370.709,,,,
01/09/04,8:00,103.0,15.6,256.0,1370.704,,,,
01/09/04,8:30,103.0,15.6,256.0,1370.704,,,,
01/09/04,9:00,103.2,15.6,255.8,1370.706,,,,
01/09/04,9:30,102.9,15.6,256.1,1370.703,,,,
01/09/04,10:00,103.1,15.6,255.9,1370.705,,,,
01/09/04,10:30,102.9,15.6,256.1,1370.703,,,,
01/09/04,11:00,102.8,15.6,256.2,1370.702,,,,
01/09/04,11:30,102.7,15.6,256.3,1370.701,,,,
01/09/04,12:00,102.8,15.6,256.2,1370.702,,,,
01/09/04,12:30,103.1,15.6,255.9,1370.705,,,,
01/09/04,13:00,103.1,15.6,255.9,1370.705,,,,
01/09/04,13:30,102.9,15.6,256.1,1370.703,,,,
01/09/04,14:00,102.9,15.6,256.1,1370.703,,,,
01/09/04,14:30,103.2,15.6,255.8,1370.706,,,,
01/09/04,15:00,102.9,15.6,256.1,1370.703,,,,
01/09/04,15:30,103.4,15.6,255.6,1370.708,,,,
01/09/04,16:00,103.3,15.6,255.7,1370.707,,,,
01/09/04,16:30,104.1,15.6,254.9,1370.715,,,,
01/09/04,17:00,103.3,15.6,255.7,1370.707,,,,
01/09/04,17:30,103.6,15.6,255.4,1370.710,,,,
01/09/04,18:00,103.5,15.6,255.5,1370.709,,,,
01/09/04,18:30,103.4,15.6,255.6,1370.708,,,,
01/09/04,19:00,103.7,15.6,255.3,1370.711,,,,
01/09/04,19:30,103.9,15.6,255.1,1370.713,,,,
01/09/04,20:00,104.0,15.6,255.0,1370.714,,,,
01/09/04,20:30,103.5,15.6,255.5,1370.709,,,,
01/09/04,21:00,103.7,15.6,255.3,1370.711,,,,
01/09/04,21:30,103.8,15.6,255.2,1370.712,,,,
01/09/04,22:00,103.2,15.6,255.8,1370.706,,,,
01/09/04,22:30,103.8,15.6,255.2,1370.712,,,,
01/09/04,23:00,104.4,15.6,254.6,1370.718,,,,
01/09/04,23:30,103.9,15.6,255.1,1370.713,,,,
01/10/04,0:00,103.9,15.6,255.1,1370.713,,,,
01/10/04,0:30,104.8,15.6,254.2,1370.722,,,,
01/10/04,1:00,104.1,15.6,254.9,1370.715,,,,
01/10/04,1:30,103.8,15.6,255.2,1370.712,,,,
01/10/04,2:00,103.8,15.6,255.2,1370.712,,,,
01/10/04,2:30,103.8,15.6,255.2,1370.712,,,,
01/10/04,3:00,104.5,15.6,254.5,1370.719,,,,
01/10/04,3:30,103.7,15.6,255.3,1370.711,,,,
01/10/04,4:00,103.9,15.6,255.1,1370.713,,,,
01/10/04,4:30,104.5,15.6,254.5,1370.719,,,,
01/10/04,5:00,104.6,15.6,254.4,1370.720,,,,
01/10/04,5:30,104.4,15.6,254.6,1370.718,,,,
01/10/04,6:00,104.1,15.6,254.9,1370.715,,,,
01/10/04,6:30,103.9,15.6,255.1,1370.713,,,,
01/10/04,7:00,103.8,15.6,255.2,1370.712,,,,
01/10/04,7:30,104.5,15.6,254.5,1370.719,,,,
01/10/04,8:00,103.8,15.6,255.2,1370.712,,,,
01/10/04,8:30,104.1,15.6,254.9,1370.715,,,,
01/10/04,9:00,104.3,15.6,254.7,1370.717,,,,
01/10/04,9:30,104.0,15.6,255.0,1370.714,,,,
01/10/04,10:00,104.3,15.6,254.7,1370.717,,,,
01/10/04,10:30,103.5,15.6,255.5,1370.709,,,,
01/10/04,11:00,104.0,15.6,255.0,1370.714,,,,
01/10/04,11:30,103.6,15.6,255.4,1370.710,,,,
01/10/04,12:00,103.1,15.6,255.9,1370.705,,,,
01/10/04,12:30,104.1,15.6,254.9,1370.715,,,,
01/10/04,13:00,103.9,15.6,255.1,1370.713,,,,
01/10/04,13:30,103.6,15.6,255.4,1370.710,,,,
01/10/04,14:00,103.8,15.6,255.2,1370.712,,,,
01/10/04,14:30,103.3,15.6,255.7,1370.707,,,,
01/10/04,15:00,103.5,15.6,255.5,1370.709,,,,
01/10/04,15:30,104.3,15.6,254.7,1370.717,,,,
01/10/04,16:00,103.7,15.6,255.3,1370.711,,,,
01/10/04,16:30,104.1,15.6,254.9,1370.715,,,,
01/10/04,17:00,103.8,15.6,255.2,1370.712,,,,
01/10/04,17:30,103.9,15.6,255.1,1370.713,,,,
01/10/04,18:00,104.4,15.6,254.6,1370.718,,,,
01/10/04,18:30,104.0,15.6,255.0,1370.714,,,,
01/10/04,19:00,104.1,15.6,254.9,1370.715,,,,
01/10/04,19:30,104.5,15.6,254.5,1370.719,,,,
01/10/04,20:00,104.9,15.6,254.1,1370.723,,,,
01/10/04,20:30,104.5,15.6,254.5,1370.719,,,,
01/10/04,21:00,104.4,15.6,254.6,1370.718,,,,
01/10/04,21:30,104.4,15.6,254.6,1370.718,,,,
01/10/04,22:00,104.0,15.6,255.0,1370.714,,,,
01/10/04,22:30,104.3,15.6,254.7,1370.717,,,,
01/10/04,23:00,104.9,15.6,254.1,1370.723,,,,
01/10/04,23:30,104.4,15.6,254.6,1370.718,,,,
01/11/04,0:00,104.6,15.6,254.4,1370.720,,,,
01/11/04,0:30,105.0,15.6,254.0,1370.724,,,,
01/11/04,1:00,104.7,15.6,254.3,1370.721,,,,
01/11/04,1:30,104.5,15.6,254.5,1370.719,,,,
01/11/04,2:00,104.9,15.6,254.1,1370.723,,,,
01/11/04,2:30,104.6,15.6,254.4,1370.720,,,,
01/11/04,3:00,105.0,15.6,254.0,1370.724,,,,
01/11/04,3:30,104.8,15.6,254.2,1370.722,,,,
01/11/04,4:00,105.0,15.6,254.0,1370.724,,,,
01/11/04,4:30,104.7,15.6,254.3,1370.721,,,,
01/11/04,5:00,104.8,15.6,254.2,1370.722,,,,
01/11/04,5:30,105.2,15.6,253.8,1370.726,,,,
01/11/04,6:00,105.3,15.6,253.7,1370.727,,,,
01/11/04,6:30,105.6,15.6,253.4,1370.730,,,,
01/11/04,7:00,104.7,15.6,254.3,1370.721,,,,
01/11/04,7:30,104.1,15.6,254.9,1370.715,,,,
01/11/04,8:00,104.9,15.6,254.1,1370.723,,,,
01/11/04,8:30,104.4,15.6,254.6,1370.718,,,,
01/11/04,9:00,104.0,15.6,255.0,1370.714,,,,
01/11/04,9:30,104.0,15.6,255.0,1370.714,,,,
01/11/04,10:00,105.5,15.6,253.5,1370.729,,,,
01/11/04,10:30,104.3,15.6,254.7,1370.717,,,,
01/11/04,11:00,104.3,15.6,254.7,1370.717,,,,
01/11/04,11:30,104.2,15.6,254.8,1370.716,,,,
01/11/04,12:00,105.1,15.6,253.9,1370.725,,,,
01/11/04,12:30,105.0,15.6,254.0,1370.724,,,,
01/11/04,13:00,105.6,15.6,253.4,1370.730,,,,
01/11/04,13:30,104.5,15.6,254.5,1370.719,,,,
01/11/04,14:00,104.8,15.6,254.2,1370.722,,,,
01/11/04,14:30,104.9,15.6,254.1,1370.723,,,,
01/11/04,15:00,104.7,15.6,254.3,1370.721,,,,
01/11/04,15:30,105.0,15.6,254.0,1370.724,,,,
01/11/04,16:00,104.3,15.6,254.7,1370.717,,,,
01/11/04,16:30,104.8,15.6,254.2,1370.722,,,,
01/11/04,17:00,104.7,15.6,254.3,1370.721,,,,
01/11/04,17:30,105.5,15.6,253.5,1370.729,,,,
01/11/04,18:00,105.2,15.6,253.8,1370.726,,,,